{"data":{"norad_id":42991,"epoch":"2026-09-20T04:43:00.612768Z","epoch_age_seconds":40526,"freshness":"FRESH","line1":"1 42991U 17068E   26263.19653487  .00007745  00000+0  20543-3 0  9998","line2":"2 42991  97.4659  42.3217 0006769 120.5052 239.6862 15.38580391496973","mean_motion":15.38580391,"eccentricity":0.0006769,"inclination_deg":97.4659,"raan_deg":42.3217,"arg_perigee_deg":120.5052,"mean_anomaly_deg":239.6862,"bstar":0.00020543,"rev_number":49697,"period_min":93.592769570141,"perigee_km":445.68420509143,"apogee_km":454.92855173713,"semimajor_km":6828.4433784143,"source":"CELESTRAK","updated_at":"2026-09-20T09:00:34.709021Z"}}